TimeEDT,TemperatureF,Dew PointF,Humidity,Sea Level PressureIn,VisibilityMPH,Wind Direction,Wind SpeedMPH,Gust SpeedMPH,PrecipitationIn,Events,Conditions,WindDirDegrees,DateUTC
12:54 AM,70.0,54.0,57,29.93,10.0,NNE,11.5,-,N/A,,Mostly Cloudy,20,2013-07-25 04:54:00
1:54 AM,68.0,52.0,56,29.93,10.0,NNE,4.6,-,N/A,,Scattered Clouds,20,2013-07-25 05:54:00
2:54 AM,66.9,50.0,54,29.93,10.0,NNE,11.5,-,N/A,,Mostly Cloudy,20,2013-07-25 06:54:00
3:54 AM,66.0,51.1,59,29.94,10.0,North,5.8,-,N/A,,Mostly Cloudy,360,2013-07-25 07:54:00
4:54 AM,64.0,50.0,60,29.95,10.0,North,6.9,-,N/A,,Mostly Cloudy,350,2013-07-25 08:54:00
5:54 AM,63.0,50.0,63,29.95,10.0,North,9.2,-,N/A,,Mostly Cloudy,10,2013-07-25 09:54:00
6:54 AM,63.0,50.0,63,29.96,10.0,North,8.1,-,N/A,,Mostly Cloudy,10,2013-07-25 10:54:00
7:54 AM,62.1,51.1,67,29.98,10.0,NNW,6.9,-,N/A,,Mostly Cloudy,330,2013-07-25 11:54:00
8:54 AM,63.0,51.1,65,29.98,10.0,North,8.1,-,N/A,,Mostly Cloudy,360,2013-07-25 12:54:00
9:54 AM,66.0,52.0,60,29.99,10.0,Variable,5.8,-,N/A,,Mostly Cloudy,0,2013-07-25 13:54:00
10:54 AM,68.0,53.1,59,30.00,10.0,Variable,6.9,-,N/A,,Mostly Cloudy,0,2013-07-25 14:54:00
11:54 AM,73.0,54.0,51,30.01,10.0,Variable,3.5,-,N/A,,Scattered Clouds,0,2013-07-25 15:54:00
12:54 PM,75.9,55.9,50,30.00,10.0,North,8.1,-,N/A,,Scattered Clouds,360,2013-07-25 16:54:00
1:54 PM,75.9,55.9,50,29.99,10.0,NNE,8.1,-,N/A,,Mostly Cloudy,20,2013-07-25 17:54:00
2:54 PM,77.0,57.0,50,29.98,10.0,Variable,6.9,21.9,N/A,,Scattered Clouds,0,2013-07-25 18:54:00
3:54 PM,77.0,57.9,52,29.98,10.0,NE,5.8,17.3,N/A,,Mostly Cloudy,50,2013-07-25 19:54:00
4:54 PM,75.9,59.0,56,29.98,10.0,ENE,9.2,-,N/A,,Mostly Cloudy,70,2013-07-25 20:54:00
5:54 PM,75.9,59.0,56,29.98,10.0,NNE,6.9,-,N/A,,Mostly Cloudy,20,2013-07-25 21:54:00
6:54 PM,75.0,60.1,60,30.00,10.0,ENE,12.7,-,N/A,,Mostly Cloudy,60,2013-07-25 22:54:00
7:54 PM,73.0,60.1,64,30.02,10.0,NE,9.2,-,N/A,,Mostly Cloudy,40,2013-07-25 23:54:00
8:54 PM,73.0,60.1,64,30.02,10.0,NE,8.1,-,N/A,,Mostly Cloudy,40,2013-07-26 00:54:00
9:54 PM,71.1,60.1,68,30.03,10.0,NNE,5.8,-,N/A,,Partly Cloudy,20,2013-07-26 01:54:00
10:54 PM,70.0,60.1,71,30.02,10.0,NE,4.6,-,N/A,,Scattered Clouds,40,2013-07-26 02:54:00
11:54 PM,69.1,60.1,73,30.03,10.0,NNE,5.8,-,N/A,,Scattered Clouds,20,2013-07-26 03:54:00